Latest Weather Observations for Coldstream

IDV60901

Issued at 6:05 pm EST Friday 25 July 2014 (issued every 10 minutes, with the page automatically refreshed every 10 minutes)

About weather observations | Map of Melbourne area stations | Latest observations for Melbourne area | Other Formats
Station Details ID: 086383 Name: COLDSTREAM Lat: -37.72 Lon: 145.41 Height: 83.0 m
Data from the previous 72 hours. | See also: Recent months at Coldstream
Date/Time
EST
Tmp

°C
App
Tmp
°C
Dew
Point
°C
Rel
Hum
%
Delta-T

°C
Wind Press
QNH
hPa
Press
MSL
hPa
Rain
since
9 am
mm
Dir
 
Spd
km/h
Gust
km/h
Spd
kts
Gust
kts
25/06:00pm 12.0 9.0 9.2 83 1.4 N 15 22 8 12 1018.1 1018.3 0.2
25/05:30pm 12.7 10.1 9.5 81 1.6 N 13 19 7 10 1017.6 - 0.2
25/05:00pm 13.2 10.7 9.8 80 1.7 N 13 19 7 10 1017.3 1017.4 0.2
25/04:30pm 14.0 10.4 9.8 76 2.2 N 19 30 10 16 1017.1 - 0.2
25/04:00pm 14.7 10.8 9.5 71 2.7 N 20 30 11 16 1017.0 1017.1 0.2
25/03:30pm 14.4 10.7 9.4 72 2.6 N 19 28 10 15 1016.8 - 0.2
25/03:00pm 14.3 10.5 9.1 71 2.7 N 19 33 10 18 1016.4 1016.5 0.2
25/02:30pm 13.9 9.1 8.9 72 2.5 N 24 32 13 17 1016.1 - 0.2
25/02:00pm 14.6 10.2 8.8 68 2.9 N 22 35 12 19 1016.1 1016.2 0.0
25/01:30pm 15.2 10.2 8.2 63 3.5 N 24 37 13 20 1016.2 - 0.0
25/01:00pm 15.1 10.3 9.0 67 3.1 N 24 35 13 19 1016.3 1016.4 0.0
25/12:30pm 15.0 10.2 8.9 67 3.1 N 24 39 13 21 1016.5 - 0.0
25/12:00pm 15.5 10.8 9.2 66 3.2 N 24 35 13 19 1016.8 1016.9 0.0
25/11:30am 15.5 10.3 9.0 65 3.3 N 26 43 14 23 1017.0 - 0.0
25/11:00am 15.4 11.6 9.7 69 3.0 N 20 30 11 16 1017.0 1017.1 0.0
25/10:30am 13.8 10.1 9.5 75 2.2 N 19 30 10 16 1017.4 - 0.0
25/10:00am 14.0 10.3 9.6 75 2.3 N 19 24 10 13 1017.3 1017.4 0.0
25/09:30am 12.8 8.8 8.9 77 2.0 N 20 32 11 17 1017.0 - 0.0
25/09:00am 12.5 9.0 8.8 78 1.9 N 17 26 9 14 1016.9 1017.0 0.0
25/08:30am 11.8 9.0 8.6 81 1.6 N 13 19 7 10 1016.8 - 0.0
25/08:00am 11.5 8.3 8.4 81 1.5 N 15 22 8 12 1016.1 1016.2 0.0
25/07:30am 11.3 7.7 8.5 83 1.4 N 17 24 9 13 1015.8 - 0.0
25/07:00am 11.2 8.4 8.4 83 1.4 N 13 22 7 12 1015.8 1015.9 0.0
25/06:30am 9.7 7.9 8.1 90 0.8 N 7 11 4 6 1015.5 - 0.0
25/06:00am 9.8 8.0 8.1 89 0.8 N 7 11 4 6 1015.0 1015.1 0.0
25/05:30am 10.3 8.2 8.1 86 1.1 N 9 13 5 7 1014.8 - 0.0
25/05:00am 11.2 9.1 8.2 82 1.5 N 9 15 5 8 1014.6 1014.7 0.0
25/04:30am 11.2 9.4 8.1 81 1.5 NW 7 9 4 5 1014.6 - 0.0
25/04:00am 9.2 8.2 7.5 89 0.8 WSW 2 7 1 4 1014.3 1014.4 0.0
25/03:30am 10.2 8.8 7.4 83 1.3 NNW 4 9 2 5 1014.2 - 0.0
25/03:00am 11.4 9.2 7.7 78 1.8 NNE 9 15 5 8 1013.9 1014.1 0.0
25/02:30am 11.2 8.9 7.5 78 1.8 NNE 9 11 5 6 1013.8 - 0.0
25/02:00am 11.6 9.4 7.7 77 1.9 N 9 13 5 7 1013.8 1014.0 0.0
25/01:30am 11.9 9.3 7.6 75 2.1 NNE 11 15 6 8 1013.8 - 0.0
25/01:00am 12.2 9.6 7.7 74 2.2 NNE 11 15 6 8 1013.7 1013.9 0.0
25/12:30am 12.3 9.7 7.6 73 2.3 NNE 11 19 6 10 1013.6 - 0.0
25/12:00am 11.8 9.5 7.5 75 2.1 NE 9 17 5 9 1013.8 1014.0 0.0
 
Date/Time
EST
Tmp

°C
App
Tmp
°C
Dew
Point
°C
Rel
Hum
%
Delta-T

°C
Wind Press
QNH
hPa
Press
MSL
hPa
Rain
since
9 am
mm
Dir
 
Spd
km/h
Gust
km/h
Spd
kts
Gust
kts
24/11:30pm 12.3 10.0 7.4 72 2.4 NE 9 17 5 9 1014.3 - 0.0
24/11:00pm 11.9 9.7 6.4 69 2.6 NE 7 13 4 7 1014.2 1014.3 0.0
24/10:30pm 11.7 9.7 6.2 69 2.6 NE 6 9 3 5 1013.9 - 0.0
24/10:00pm 11.9 9.3 6.0 67 2.8 NE 9 17 5 9 1013.8 1014.0 0.0
24/09:30pm 12.2 9.6 6.0 66 2.9 NE 9 17 5 9 1013.8 - 0.0
24/09:00pm 12.6 8.5 6.0 64 3.1 ENE 17 26 9 14 1013.8 1014.0 0.0
24/08:30pm 12.6 8.4 5.8 63 3.2 ENE 17 24 9 13 1013.8 - 0.0
24/08:00pm 12.0 9.4 6.3 68 2.7 NE 9 17 5 9 1013.8 1014.0 0.0
24/07:30pm 10.8 8.6 6.2 73 2.2 ENE 7 13 4 7 1014.1 - 0.0
24/07:00pm 7.3 4.7 4.1 80 1.4 E 7 15 4 8 1013.7 1013.9 0.0
24/06:30pm 11.2 9.1 5.7 69 2.6 NE 6 11 3 6 1013.5 - 0.0
24/06:00pm 12.4 9.4 6.0 65 3.0 ENE 11 17 6 9 1013.2 1013.4 0.0
24/05:30pm 13.2 9.5 6.3 63 3.3 ENE 15 22 8 12 1013.0 - 0.0
24/05:00pm 12.9 9.1 7.4 69 2.7 ENE 17 24 9 13 1013.2 1013.4 0.0
24/04:30pm 12.8 9.7 7.3 69 2.7 ENE 13 22 7 12 1013.4 - 0.0
24/04:00pm 12.7 10.5 8.0 73 2.3 ENE 9 17 5 9 1013.6 1013.8 0.0
24/03:30pm 13.2 11.0 7.9 70 2.6 NE 9 17 5 9 1013.5 - 0.0
24/03:00pm 13.8 11.7 8.2 69 2.8 NE 9 22 5 12 1013.4 1013.6 0.0
24/02:30pm 13.2 11.0 7.9 70 2.6 ENE 9 19 5 10 1013.4 - 0.0
24/02:00pm 12.9 9.2 7.8 71 2.5 ENE 17 24 9 13 1013.6 1013.8 0.0
24/01:30pm 12.8 10.0 8.5 75 2.1 E 13 20 7 11 1013.9 - 0.0
24/01:00pm 12.4 8.6 7.7 73 2.3 ENE 17 28 9 15 1014.7 1014.8 0.0
24/12:30pm 11.8 8.6 8.3 79 1.7 ENE 15 24 8 13 1015.1 - 0.0
24/12:00pm 9.9 7.0 8.3 90 0.8 ESE 13 24 7 13 1015.9 1016.0 0.0
24/11:30am 9.0 7.6 8.9 99 0.0 ESE 6 7 3 4 1016.9 - 0.0
24/11:00am 7.9 7.0 7.8 99 0.0 N 2 7 1 4 1017.4 1017.5 0.0
24/10:30am 7.8 6.9 7.7 99 0.0 NW 2 7 1 4 1017.0 - 0.0
24/10:00am 6.6 5.4 6.5 99 0.0 S 2 6 1 3 1016.9 1017.0 0.0
24/09:30am 5.6 4.6 5.5 99 0.0 CALM 0 0 0 0 1016.8 - 0.0
24/09:00am 4.8 3.6 4.7 99 0.0 CALM 0 0 0 0 1016.7 1016.8 0.0
24/08:30am 4.6 3.0 4.5 99 0.0 WNW 2 7 1 4 1016.7 - 0.0
24/08:00am 4.5 2.9 4.4 99 0.0 S 2 6 1 3 1016.6 1016.7 0.0
24/07:30am 3.6 2.2 3.5 99 0.0 CALM 0 0 0 0 1016.8 - 0.0
24/07:00am 3.2 1.3 3.1 99 0.0 S 2 7 1 4 1016.7 1016.8 0.0
24/06:30am 3.0 1.1 2.9 99 0.0 S 2 7 1 4 1016.8 - 0.0
24/06:00am 2.9 1.0 2.8 99 0.0 S 2 7 1 4 1016.9 1017.0 0.0
24/05:30am 2.1 0.4 2.0 99 0.0 CALM 0 9 0 5 1017.1 - 0.0
24/05:00am 1.4 -0.8 1.3 99 0.0 NW 2 9 1 5 1017.4 1017.5 0.0
24/04:30am 1.6 -0.5 1.5 99 0.0 NW 2 7 1 4 1017.3 - 0.0
24/04:00am 1.6 -0.5 1.5 99 0.0 SSW 2 7 1 4 1017.5 1017.6 0.0
24/03:30am 0.9 -1.0 0.8 99 0.0 CALM 0 4 0 2 1017.3 - 0.0
24/03:00am 1.0 -1.6 0.9 99 0.0 SE 4 7 2 4 1017.5 1017.6 0.0
24/02:30am 1.3 -1.3 1.2 99 0.0 S 4 7 2 4 1017.8 - 0.0
24/02:00am 0.3 -1.7 0.2 99 0.0 CALM 0 0 0 0 1018.1 1018.3 0.0
24/01:30am -0.1 -2.1 -0.2 99 0.0 CALM 0 0 0 0 1018.1 - 0.0
24/01:00am 0.3 -1.7 0.2 99 0.0 CALM 0 6 0 3 1018.2 1018.4 0.0
24/12:30am 0.6 -1.3 0.5 99 0.0 CALM 0 0 0 0 1018.3 - 0.0
24/12:00am 1.6 -0.2 1.5 99 0.0 CALM 0 0 0 0 1018.7 1018.9 0.0
 
Date/Time
EST
Tmp

°C
App
Tmp
°C
Dew
Point
°C
Rel
Hum
%
Delta-T

°C
Wind Press
QNH
hPa
Press
MSL
hPa
Rain
since
9 am
mm
Dir
 
Spd
km/h
Gust
km/h
Spd
kts
Gust
kts
23/11:30pm 1.9 -0.2 1.8 99 0.0 S 2 7 1 4 1019.0 - 0.0
23/11:00pm 2.3 0.3 2.2 99 0.0 SE 2 7 1 4 1019.2 1019.4 0.0
23/10:30pm 2.9 1.0 2.8 99 0.0 S 2 7 1 4 1019.6 - 0.0
23/10:00pm 3.1 1.6 2.8 98 0.1 CALM 0 0 0 0 1019.8 1020.0 0.0
23/09:30pm 3.9 2.5 3.6 98 0.1 CALM 0 0 0 0 1020.0 - 0.0
23/09:00pm 4.3 3.0 4.0 98 0.1 CALM 0 0 0 0 1020.1 1020.3 0.0
23/08:30pm 4.7 3.4 4.3 97 0.2 CALM 0 0 0 0 1020.2 - 0.0
23/08:00pm 5.4 4.3 5.0 97 0.2 CALM 0 0 0 0 1020.2 1020.4 0.0
23/07:30pm 5.6 3.8 5.2 97 0.2 S 4 7 2 4 1020.3 - 0.0
23/07:00pm 5.7 4.6 5.1 96 0.3 CALM 0 6 0 3 1020.0 1020.2 0.0
23/06:30pm 6.4 5.4 5.5 94 0.4 CALM 0 0 0 0 1019.9 - 0.0
23/06:00pm 6.3 5.2 4.9 91 0.6 CALM 0 0 0 0 1019.8 1020.0 0.0
23/05:30pm 8.4 7.6 6.5 88 0.9 CALM 0 6 0 3 1019.7 - 0.0
23/05:00pm 10.5 9.9 7.2 80 1.6 CALM 0 0 0 0 1019.6 1019.8 0.0
23/04:30pm 12.3 11.7 7.4 72 2.4 CALM 0 0 0 0 1019.6 - 0.0
23/04:00pm 12.4 10.5 6.7 68 2.7 NNW 6 7 3 4 1019.6 1019.8 0.0
23/03:30pm 12.6 11.7 6.2 65 3.0 CALM 0 0 0 0 1019.7 - 0.0
23/03:00pm 13.1 12.3 6.7 65 3.1 CALM 0 0 0 0 1019.8 1020.0 0.0
23/02:30pm 13.0 11.3 6.1 63 3.3 ENE 4 9 2 5 1020.0 - 0.0
23/02:00pm 12.6 11.6 5.8 63 3.2 CALM 0 0 0 0 1020.3 1020.5 0.0
23/01:30pm 12.4 11.5 6.2 66 2.9 CALM 0 0 0 0 1020.7 - 0.0
23/01:00pm 12.0 10.8 6.5 69 2.6 E 2 6 1 3 1021.1 1021.3 0.0
23/12:30pm 11.6 10.8 6.7 72 2.3 CALM 0 0 0 0 1021.8 - 0.0
23/12:00pm 11.6 10.8 6.7 72 2.3 CALM 0 0 0 0 1022.3 1022.5 0.0
23/11:30am 8.9 8.0 6.2 83 1.2 CALM 0 4 0 2 1023.0 - 0.0
23/11:00am 7.7 6.8 7.6 99 0.0 SSE 2 6 1 3 1023.5 1023.7 0.0
23/10:30am 6.7 5.9 6.6 99 0.0 CALM 0 6 0 3 1023.9 - 0.0
23/10:00am 5.4 4.3 5.3 99 0.0 CALM 0 0 0 0 1024.0 1024.2 0.0
23/09:30am 3.2 1.3 3.1 99 0.0 NNE 2 6 1 3 1024.1 - 0.0
23/09:00am 1.5 -0.3 1.4 99 0.0 CALM 0 6 0 3 1024.3 1024.5 0.2
23/08:30am 0.7 -1.2 0.6 99 0.0 CALM 0 0 0 0 1024.3 - 0.2
23/08:00am 1.0 -0.8 0.9 99 0.0 CALM 0 0 0 0 1024.3 1024.5 0.2
23/07:30am 1.2 -0.6 1.1 99 0.0 CALM 0 0 0 0 1024.3 - 0.2
23/07:00am 1.4 -0.4 1.3 99 0.0 CALM 0 4 0 2 1024.1 1024.3 0.2
23/06:30am 2.1 -0.7 2.0 99 0.0 N 6 7 3 4 1024.0 - 0.2
23/06:00am 2.5 0.9 2.4 99 0.0 CALM 0 0 0 0 1023.9 1024.1 0.2
23/05:30am 2.7 1.1 2.6 99 0.0 CALM 0 0 0 0 1023.6 - 0.2
23/05:00am 3.0 1.5 2.9 99 0.0 CALM 0 6 0 3 1023.7 1023.9 0.2
23/04:30am 3.1 0.8 3.0 99 0.0 NE 4 9 2 5 1023.7 - 0.2
23/04:00am 3.5 2.1 3.4 99 0.0 CALM 0 6 0 3 1023.9 1024.1 0.2
23/03:30am 3.7 1.2 3.6 99 0.0 N 6 7 3 4 1024.0 - 0.2
23/03:00am 3.8 1.3 3.7 99 0.0 N 6 7 3 4 1024.1 1024.3 0.2
23/02:30am 4.1 2.0 4.0 99 0.0 NNE 4 7 2 4 1024.2 - 0.2
23/02:00am 4.3 2.3 4.2 99 0.0 NE 4 9 2 5 1024.3 1024.5 0.2
23/01:30am 4.5 2.9 4.4 99 0.0 NE 2 7 1 4 1024.3 - 0.2
23/01:00am 4.5 2.9 4.4 99 0.0 NNE 2 7 1 4 1024.6 1024.8 0.2
23/12:30am 4.6 2.2 4.5 99 0.0 NNE 6 9 3 5 1024.6 - 0.2
23/12:00am 4.8 1.9 4.7 99 0.0 ENE 9 13 5 7 1024.8 1025.0 0.2
 
Date/Time
EST
Tmp

°C
App
Tmp
°C
Dew
Point
°C
Rel
Hum
%
Delta-T

°C
Wind Press
QNH
hPa
Press
MSL
hPa
Rain
since
9 am
mm
Dir
 
Spd
km/h
Gust
km/h
Spd
kts
Gust
kts
22/11:30pm 4.9 2.6 4.8 99 0.0 ENE 6 9 3 5 1025.1 - 0.0
22/11:00pm 5.0 2.7 4.9 99 0.0 NE 6 7 3 4 1025.3 1025.5 0.0
22/10:30pm 5.1 2.8 5.0 99 0.0 NE 6 9 3 5 1025.4 - 0.0
22/10:00pm 5.1 4.0 5.0 99 0.0 CALM 0 0 0 0 1025.4 1025.6 0.0
22/09:30pm 5.0 2.7 4.9 99 0.0 NNE 6 7 3 4 1025.5 - 0.0
22/09:00pm 5.1 2.8 5.0 99 0.0 NE 6 9 3 5 1025.2 1025.4 0.0
22/08:30pm 5.1 3.2 5.0 99 0.0 N 4 9 2 5 1025.0 - 0.0
22/08:00pm 5.1 2.6 5.0 99 0.0 N 7 11 4 6 1024.8 1025.0 0.0
22/07:30pm 5.2 3.3 5.1 99 0.0 NNE 4 7 2 4 1024.7 - 0.0
22/07:00pm 5.3 3.5 5.2 99 0.0 NNE 4 7 2 4 1024.6 1024.8 0.0
22/06:30pm 5.5 4.1 5.4 99 0.0 NNE 2 7 1 4 1024.6 - 0.0

Latest Capital City Observations: Canberra | Sydney | Melbourne | Brisbane | Adelaide | Perth | Hobart | Darwin

Other Formats:

Comma delimited format used in spreadsheet applications
http://www.bom.gov.au/fwo/IDV60901/IDV60901.94864.axf

JavaScript Object Notation format (JSON) in row-major order
http://www.bom.gov.au/fwo/IDV60901/IDV60901.94864.json